Dewpoint
14 9 6 5 5 6 7 8 8 11 13 12 12 12 12 11 11 10 9 7 4 6 3 2 13 12 13 12 10 10 10 8 6 5 3 -0 -4 -9 -10 -9 -3 8 9
10 9 4 1 2 1 3 2 3 6 8 12 12 12 12 11 9 9 6 -0 -3 -4 -7 7 11 11 11 10 10 9 4 -2 -5 -4 -3 -1 -2 -6 -6 -3 2 2 3
11 7 3 0 -3 -3 -3 -4 -4 -4 -2 6 11 12 10 11 10 7 -4 -7 -7 -6 -5 9 11 11 10 10 9 4 -6 -2 1 2 1 1 2 4 -2 -5 -4 -1 2
8 5 2 -0 -3 -3 -3 -3 -6 -7 -5 -3 9 10 12 11 10 -1 -6 -6 -6 -6 -3 3 8 9 8 2 -4 -5 0 5 7 7 7 7 5 6 5 3 -1 1 4
9 4 1 0 -1 -1 -2 -4 -6 -6 -4 2 9 11 11 11 8 -4 -3 -3 -4 -5 -5 -6 -6 -5 -5 -3 1 1 6 8 9 10 9 10 9 10 8 6 6 4 3
9 4 2 2 3 1 -1 -4 -6 -5 -2 1 5 8 8 4 -2 1 -0 -1 -1 -1 -1 -1 -0 1 2 3 5 5 6 9 11 11 10 11 9 11 9 7 9 9 9
7 4 3 5 6 4 1 -3 -5 -4 -1 -1 2 1 -2 -0 2 2 1 0 1 2 3 4 5 5 5 6 6 7 7 10 10 10 10 10 11 10 7 6 10 11 11
10 6 5 7 7 6 3 -1 -5 -4 -1 2 0 2 3 5 3 2 2 1 1 3 4 6 7 7 7 7 6 6 6 7 9 9 10 10 9 8 1 8 9 10 10
13 10 10 8 9 7 6 0 -4 -3 -0 3 7 9 10 10 9 5 4 3 1 4 6 6 5 6 7 6 5 5 5 5 6 6 6 7 6 5 -1 -1 1 5 8
14 14 14 14 10 8 7 5 -1 -3 -0 3 8 9 9 10 9 8 5 3 1 2 5 5 5 6 6 5 4 1 2 2 1 1 2 3 2 0 -0 -0 7 8 9
15 14 14 14 12 10 8 6 3 -3 -2 2 7 8 9 10 10 9 7 4 1 1 4 5 6 6 6 6 6 2 -3 -4 -3 -4 -3 -3 -2 4 8 8 8 9 9
14 14 13 13 12 10 9 8 4 0 -2 2 5 8 8 8 10 10 6 3 1 1 5 6 6 7 7 7 4 -3 -5 -5 -6 -6 -6 -6 5 8 8 8 9 8 8
12 13 13 13 13 12 9 10 6 3 -1 -1 3 5 7 6 6 7 7 5 2 0 4 6 6 6 7 3 -4 -5 -7 -9 -9 -9 -8 -7 6 8 8 8 3 4 2
11 12 12 13 13 13 13 11 9 6 2 -2 -1 2 4 3 5 5 6 4 2 2 5 5 6 6 6 -3 -5 -7 -11 -15 -14 -11 -10 -7 -2 2 1 -2 -2 -2 -2
11 11 11 13 13 14 13 13 11 11 7 2 -1 -1 -1 1 4 5 6 7 6 7 7 6 6 7 3 -5 -7 -14 -16 -16 -14 -12 -10 -8 -7 -5 -3 -4 -4 -5 -6
12 11 11 12 12 12 12 13 13 12 11 7 3 2 2 3 5 5 5 9 9 8 8 6 7 7 -3 -7 -13 -16 -16 -15 -14 -12 -11 -9 -9 -8 -7 -7 -7 -9 -13
3 10 12 12 12 12 11 13 13 13 11 11 10 10 10 9 10 4 4 9 10 10 9 7 7 3 -5 -10 -12 -15 -15 -16 -13 -12 -10 -9 -10 -10 -10 -11 -11 -11 -16
2 3 10 12 12 12 12 12 13 13 12 12 12 11 11 11 11 6 5 8 10 11 8 8 7 -4 -6 -7 -8 -12 -15 -15 -14 -11 -10 -10 -11 -11 -11 -11 -16 -18 -18
2 2 2 11 11 10 11 12 12 13 11 12 12 12 12 12 11 10 8 10 11 10 8 8 3 -4 -4 -4 -6 -10 -12 -14 -12 -10 -10 -10 -10 -10 -14 -14 -15 -17 -17
1 1 2 2 10 11 10 9 10 12 12 12 12 11 11 11 11 11 11 11 11 10 9 8 -3 -3 -2 -3 -5 -9 -12 -12 -10 -9 -9 -10 -8 -8 -12 -13 -14 -15 -14
-0 -1 -1 -0 2 9 10 9 9 11 11 11 12 12 12 12 11 10 11 11 11 9 9 6 -3 -1 -1 -2 -4 -9 -10 -11 -10 -9 -8 -8 -6 -7 -11 -13 -13 -13 -13
-0 -1 -1 -1 -1 1 7 8 9 8 10 9 11 12 12 11 11 11 10 11 10 9 9 4 -2 -0 -0 -1 -2 -7 -9 -8 -10 -10 -10 -8 -8 -10 -12 -13 -13 -13 -13
-1 -1 -1 -0 -1 -1 4 8 9 9 9 10 10 11 12 11 11 11 11 11 10 9 8 2 -1 -0 -0 -0 -0 -3 -6 -11 -10 -11 -11 -12 -12 -12 -13 -12 -13 -13 -14
-3 -4 -3 -2 -2 1 1 4 7 9 8 9 9 10 11 11 11 11 10 11 10 9 8 -1 -1 0 0 0 -0 -0 -1 -3 -9 -13 -13 -13 -13 -12 -12 -14 -15 -16 -15
-5 -5 -5 -5 -3 -1 2 3 5 9 9 7 7 8 9 9 11 10 10 11 10 9 5 -1 -1 0 0 0 0 0 -1 -2 -5 -10 -12 -13 -13 -13 -14 -16 -17 -15 -17
-5 -5 -5 -5 -5 -4 -0 2 4 7 8 8 8 8 9 10 10 11 11 12 10 8 4 -1 -0 0 0 -0 -0 0 -0 -2 -5 -10 -13 -13 -14 -15 -17 -17 -15 -17 -19
Wind_Speed
16 16 16 18 17 16 17 16 14 13 12 11 9 8 8 7 5 2 2 4 4 3 3 10 12 12 13 9 7 4 2 4 6 6 5 4 3 0 1 1 2 3 3
13 18 17 17 18 16 15 14 13 12 12 12 11 9 7 5 2 0 2 2 3 5 7 15 17 13 9 5 2 1 3 2 5 6 5 3 3 6 6 5 2 2 2
14 20 19 19 17 16 16 14 11 11 11 13 11 9 6 7 5 1 4 7 9 9 11 16 14 12 8 4 1 1 4 8 7 7 6 7 8 9 7 5 4 3 3
13 20 20 20 18 17 15 13 11 10 10 13 17 11 11 9 6 4 9 10 11 12 13 12 12 10 6 3 5 8 10 9 7 6 6 8 7 8 7 5 4 4 4
16 19 20 20 19 17 15 13 12 11 10 13 19 18 14 9 6 9 10 11 12 13 13 13 11 10 9 9 9 11 10 8 7 6 4 7 6 4 7 4 4 5 4
19 21 20 21 19 16 15 14 12 11 11 14 17 15 12 11 12 10 11 11 12 12 12 12 12 12 11 10 10 10 7 7 5 4 3 3 5 4 7 2 3 4 3
20 21 20 20 18 16 14 13 12 11 13 14 16 16 16 14 12 10 10 10 11 11 11 12 12 11 10 8 7 6 6 6 4 4 2 2 6 6 7 3 0 1 1
18 21 18 18 17 15 14 13 12 11 13 16 18 16 14 13 11 11 10 10 9 9 10 10 9 8 7 6 5 4 4 6 5 3 4 6 6 6 5 2 3 4 6
14 19 18 17 16 14 14 13 13 12 13 15 16 15 13 11 10 9 9 8 8 8 8 7 6 5 4 4 3 3 3 3 2 3 3 5 6 6 7 6 3 2 3
17 15 15 14 17 16 16 14 15 14 14 15 16 15 13 11 12 10 9 8 7 7 6 5 4 3 3 2 1 2 2 2 3 4 4 6 7 8 8 6 1 2 4
19 18 15 14 19 17 16 16 16 16 15 16 16 16 15 13 13 11 9 8 7 7 6 5 3 2 2 1 2 2 3 5 7 8 7 7 8 5 1 2 4 4 4
24 21 17 15 17 19 18 18 17 17 18 19 18 18 16 14 13 11 9 9 8 8 7 6 4 3 3 3 4 5 6 8 9 9 8 7 1 2 5 6 4 3 2
25 23 21 18 17 19 21 19 19 18 18 19 20 18 17 16 15 14 13 11 10 9 8 6 6 4 4 5 5 8 9 9 9 8 6 2 6 5 4 6 2 2 3
26 25 23 22 20 19 18 19 21 20 19 20 20 20 20 18 16 14 13 11 11 10 10 8 6 5 6 7 8 9 9 9 7 6 4 2 8 8 2 1 1 2 4
25 26 26 25 23 22 19 18 21 22 21 20 21 22 21 19 17 15 14 13 13 11 9 8 7 7 8 10 10 9 7 6 6 5 4 2 3 5 4 3 4 4 5
30 30 28 28 26 24 22 22 20 20 20 22 23 22 21 18 17 16 18 17 15 12 9 9 9 9 9 10 9 7 6 5 5 5 3 2 2 4 4 4 4 5 6
19 34 37 32 30 28 25 25 24 23 21 23 22 21 19 18 16 18 21 20 16 12 12 11 11 10 9 8 7 6 5 5 6 6 4 2 2 2 3 4 6 8 9
24 18 37 39 34 32 29 29 29 27 24 25 21 19 19 17 19 21 22 20 17 15 15 13 12 10 8 7 6 5 5 6 6 5 4 4 3 3 5 6 7 9 10
34 29 21 40 39 35 32 30 33 31 27 26 23 22 21 21 21 19 20 20 19 18 17 14 12 10 8 6 4 4 4 3 4 4 5 5 5 6 6 10 9 10 9
41 37 34 28 41 42 34 32 32 33 31 26 27 26 27 27 25 20 21 22 20 19 17 15 13 11 8 5 4 4 3 3 3 4 6 7 7 8 12 11 12 10 14
35 39 36 35 32 42 43 38 35 37 36 33 32 32 31 32 27 24 24 24 22 18 16 16 14 12 8 6 4 4 5 4 5 6 7 8 9 11 11 13 13 16 17
24 25 39 38 34 39 45 44 43 37 40 36 39 34 33 33 32 30 26 26 24 20 18 17 15 13 9 6 6 6 6 6 7 8 8 11 12 13 13 14 17 20 22
35 30 28 29 34 37 39 45 43 39 38 38 39 36 37 35 34 32 29 27 26 22 17 18 16 14 11 8 6 5 4 5 6 10 12 12 13 14 14 16 19 21 24
33 33 35 33 28 28 32 43 47 46 43 42 39 41 39 37 35 33 32 32 28 24 20 19 18 15 12 9 6 5 4 5 3 4 10 13 15 15 17 19 23 22 23
27 27 28 31 33 32 32 36 44 48 46 44 41 43 42 41 38 35 36 34 31 26 24 22 21 17 13 9 7 6 6 6 7 8 10 10 15 18 22 21 21 21 21
22 24 25 26 31 30 31 34 38 48 49 48 46 44 46 43 42 39 37 36 32 29 27 24 21 18 14 11 9 8 8 8 9 10 13 18 21 23 21 20 20 20 18
Wind_Direction
179 172 167 163 163 164 163 164 165 164 159 160 166 177 180 186 183 200 273 292 289 229 160 132 102 120 126 97 100 116 346 236 249 241 240 233 226 115 20 302 122 133 192
169 172 170 167 167 166 164 163 165 172 175 171 182 187 187 182 187 249 309 300 131 131 135 143 126 132 133 129 102 356 334 150 143 144 145 126 92 71 58 62 80 10 59
184 175 171 168 165 162 160 155 158 168 176 175 175 184 182 157 148 105 112 114 110 112 128 148 152 155 163 180 225 359 114 123 111 93 88 80 69 59 53 60 54 40 74
187 179 171 167 163 160 155 149 146 151 160 172 174 175 169 165 159 124 113 109 109 111 123 146 164 176 191 177 111 118 120 118 105 88 77 62 74 55 49 51 59 67 65
184 185 173 167 164 163 156 149 146 146 144 155 167 173 181 186 169 129 117 111 108 109 112 117 125 129 123 114 107 117 118 110 104 86 74 61 47 39 32 38 56 57 57
183 187 177 169 169 166 161 153 146 141 142 154 169 177 182 162 142 130 122 114 110 108 108 110 111 111 110 108 108 115 128 128 117 87 89 59 23 18 343 350 61 41 19
180 186 180 173 171 172 166 155 148 145 143 145 156 153 149 146 141 135 126 120 115 113 115 116 114 112 109 106 106 116 132 155 167 127 140 277 324 312 324 334 22 235 250
187 186 184 180 177 176 172 164 154 153 147 148 150 151 150 151 149 142 135 128 122 118 120 116 112 108 103 101 105 122 154 192 192 203 202 255 283 300 311 297 278 259 267
191 186 184 188 185 183 180 174 167 165 161 161 160 162 162 166 168 157 148 140 133 132 129 122 114 103 95 103 120 126 161 194 223 229 232 253 281 296 295 298 299 294 263
199 197 200 202 197 191 187 184 179 177 173 169 169 169 170 171 178 171 163 157 151 151 150 145 137 120 111 118 87 116 186 248 262 257 259 275 289 292 291 300 328 238 266
210 210 216 222 212 204 196 190 188 187 184 179 176 178 178 175 174 177 174 178 173 173 176 176 187 173 162 213 287 237 260 278 276 278 276 279 292 289 26 158 182 212 241
209 212 219 229 221 212 208 200 195 193 195 189 185 186 186 186 186 189 190 188 192 191 192 200 202 204 248 275 280 275 277 278 281 276 278 297 254 163 142 158 139 188 236
217 220 224 225 222 221 218 209 206 201 200 198 195 194 198 199 199 199 201 207 206 210 213 210 211 229 278 279 283 290 290 287 280 274 279 277 174 137 147 129 174 255 314
219 227 229 223 224 224 218 219 218 210 205 203 203 204 207 207 205 205 205 212 213 214 214 215 231 255 273 280 289 289 291 290 285 278 282 255 223 216 262 331 295 300 308
222 225 229 224 222 225 225 228 225 215 214 209 207 211 213 213 213 214 214 214 211 215 216 227 241 263 275 287 292 291 296 291 281 276 284 273 219 226 244 266 290 305 311
224 229 229 226 225 227 231 232 227 222 221 214 212 213 214 218 222 224 220 218 216 218 231 240 253 262 274 286 291 291 299 294 285 277 276 288 257 242 257 278 292 302 308
234 230 228 227 225 226 231 229 234 236 226 214 209 212 218 220 228 227 217 221 223 233 240 246 250 256 268 273 281 283 283 288 279 276 286 298 288 272 283 290 301 306 310
244 246 231 224 224 226 229 227 226 234 230 218 214 221 225 221 226 225 223 224 226 237 242 246 245 249 255 263 272 270 270 275 269 265 284 302 299 291 297 305 309 315 312
239 245 245 231 228 228 230 235 232 230 234 217 218 226 226 222 229 227 225 228 231 242 240 243 241 241 240 247 251 253 264 249 242 261 282 293 305 312 320 324 317 317 315
238 245 248 246 235 231 228 233 235 227 233 221 221 223 226 225 231 228 226 229 241 244 238 237 230 227 225 233 228 231 222 181 218 262 280 284 296 307 316 318 314 310 317
241 241 249 251 242 234 228 228 228 228 227 221 219 222 225 223 230 225 228 236 243 237 239 230 223 219 216 212 212 204 204 200 209 237 253 264 281 293 297 304 305 312 315
252 247 241 245 249 241 235 234 230 227 227 230 218 222 224 224 229 232 228 239 238 231 233 228 222 217 213 206 217 200 198 215 218 236 244 253 266 274 286 297 307 311 314
255 254 252 250 250 244 237 235 230 232 233 225 220 220 221 226 230 233 238 238 236 230 234 230 225 220 220 214 210 214 202 206 219 238 239 251 257 267 283 291 301 302 304
256 259 257 253 254 252 240 235 234 225 224 227 227 220 220 224 230 235 236 235 229 227 222 229 228 226 226 231 229 233 241 252 251 244 242 250 258 266 279 291 295 295 297
254 255 255 255 253 250 245 237 234 234 230 229 228 226 225 224 224 232 235 228 224 224 221 221 227 226 228 234 244 255 264 271 269 261 271 254 262 268 283 291 296 298 298
257 254 254 259 245 249 251 245 238 236 233 229 228 226 225 225 226 225 229 225 222 221 223 217 219 225 230 240 253 266 275 278 279 276 278 287 289 294 295 299 299 301 301
Height
1512 1515 1517 1518 1520 1522 1523 1524 1525 1527 1528 1529 1530 1531 1532 1533 1533 1533 1533 1533 1533 1533 1533 1534 1534 1535 1536 1537 1538 1538 1539 1538 1539 1538 1538 1538 1538 1538 1537 1537 1536 1537 1537
1512 1514 1516 1518 1520 1521 1523 1524 1525 1526 1527 1529 1530 1530 1531 1532 1533 1533 1533 1532 1532 1532 1532 1534 1535 1537 1537 1538 1538 1538 1538 1538 1538 1538 1538 1538 1538 1537 1537 1537 1537 1538 1537
1512 1514 1516 1518 1520 1522 1523 1524 1525 1526 1527 1528 1530 1530 1531 1532 1533 1534 1533 1533 1532 1532 1532 1534 1536 1537 1538 1538 1538 1538 1538 1538 1538 1539 1538 1538 1538 1538 1538 1538 1538 1537 1536
1513 1515 1516 1518 1520 1522 1523 1524 1525 1526 1526 1527 1529 1531 1532 1532 1533 1534 1534 1533 1533 1533 1534 1535 1536 1537 1538 1538 1538 1538 1539 1539 1539 1539 1539 1539 1538 1539 1539 1539 1538 1537 1537
1512 1515 1517 1519 1521 1522 1523 1523 1524 1525 1526 1527 1528 1530 1532 1533 1534 1534 1534 1534 1535 1535 1535 1536 1537 1537 1538 1538 1538 1539 1540 1540 1539 1540 1539 1539 1539 1540 1540 1539 1539 1538 1538
1512 1515 1517 1519 1521 1522 1523 1523 1524 1525 1526 1527 1529 1531 1532 1533 1534 1535 1535 1536 1536 1536 1537 1537 1538 1538 1539 1539 1539 1540 1540 1540 1540 1540 1540 1540 1540 1540 1541 1540 1540 1538 1538
1512 1515 1517 1519 1521 1523 1524 1524 1525 1526 1527 1528 1530 1531 1533 1534 1535 1536 1537 1537 1537 1538 1539 1539 1539 1540 1540 1540 1540 1541 1540 1540 1541 1540 1540 1541 1541 1541 1541 1540 1540 1538 1537
1512 1515 1517 1520 1521 1523 1524 1525 1526 1527 1527 1528 1530 1532 1533 1535 1536 1536 1537 1538 1539 1539 1540 1540 1541 1540 1541 1540 1540 1540 1540 1540 1541 1540 1540 1541 1541 1541 1540 1539 1538 1538 1538
1513 1514 1517 1519 1521 1523 1525 1525 1526 1527 1528 1529 1530 1532 1534 1535 1536 1537 1538 1539 1539 1540 1541 1541 1541 1541 1541 1540 1540 1540 1540 1539 1539 1540 1540 1540 1540 1539 1539 1538 1538 1537 1537
1514 1515 1517 1519 1520 1522 1523 1525 1526 1527 1528 1529 1531 1532 1533 1534 1536 1537 1538 1539 1539 1540 1541 1541 1541 1541 1541 1540 1540 1539 1539 1539 1539 1538 1539 1539 1538 1537 1537 1537 1537 1536 1536
1513 1514 1515 1518 1519 1521 1522 1524 1525 1526 1527 1529 1530 1532 1533 1534 1535 1536 1537 1539 1539 1539 1540 1540 1542 1541 1541 1540 1540 1539 1539 1538 1538 1538 1537 1537 1537 1535 1535 1536 1536 1536 1535
1510 1512 1514 1516 1518 1519 1521 1522 1523 1524 1526 1527 1529 1530 1531 1533 1534 1535 1537 1538 1539 1539 1539 1540 1540 1540 1541 1539 1539 1538 1538 1536 1537 1536 1536 1535 1536 1534 1534 1534 1535 1534 1533
1508 1512 1513 1515 1516 1517 1519 1520 1521 1522 1524 1526 1527 1529 1530 1531 1532 1534 1535 1536 1537 1538 1538 1539 1539 1539 1539 1539 1538 1537 1537 1535 1535 1535 1533 1535 1534 1533 1533 1533 1531 1532 1532
1505 1508 1511 1513 1514 1515 1517 1518 1520 1521 1522 1523 1525 1526 1527 1529 1531 1532 1533 1534 1535 1536 1537 1537 1538 1538 1538 1538 1537 1535 1536 1533 1533 1533 1532 1533 1532 1531 1532 1531 1531 1530 1531
1502 1504 1506 1509 1510 1512 1514 1516 1517 1518 1520 1522 1523 1524 1526 1527 1528 1530 1531 1532 1533 1535 1536 1536 1536 1536 1537 1537 1536 1534 1534 1532 1532 1532 1531 1532 1531 1531 1531 1531 1530 1530 1530
1500 1500 1502 1504 1506 1507 1509 1511 1513 1516 1518 1519 1520 1522 1523 1525 1526 1527 1529 1530 1532 1533 1535 1535 1534 1535 1535 1535 1534 1533 1533 1532 1532 1531 1530 1530 1530 1531 1530 1529 1529 1529 1529
1495 1497 1497 1499 1502 1503 1504 1507 1509 1512 1515 1516 1517 1519 1521 1522 1523 1525 1527 1529 1530 1532 1533 1534 1533 1533 1533 1533 1532 1532 1531 1531 1531 1530 1530 1529 1529 1529 1529 1529 1528 1528 1527
1489 1491 1492 1495 1496 1499 1500 1502 1505 1508 1509 1513 1515 1516 1517 1519 1521 1523 1524 1527 1528 1530 1532 1532 1532 1532 1531 1531 1530 1530 1529 1529 1529 1529 1529 1529 1528 1528 1528 1528 1528 1526 1525
1483 1486 1489 1490 1492 1494 1497 1500 1502 1503 1505 1508 1511 1513 1514 1516 1519 1521 1522 1524 1526 1527 1529 1529 1530 1530 1530 1529 1528 1528 1528 1527 1527 1528 1528 1528 1528 1527 1527 1527 1526 1524 1523
1477 1479 1482 1485 1485 1492 1494 1497 1499 1500 1501 1504 1507 1510 1513 1515 1516 1518 1521 1522 1524 1526 1526 1527 1527 1528 1528 1527 1526 1526 1525 1525 1526 1526 1526 1526 1526 1525 1525 1524 1523 1522 1520
1470 1472 1474 1476 1480 1484 1488 1490 1492 1494 1496 1498 1502 1506 1509 1512 1514 1516 1518 1520 1522 1524 1525 1524 1525 1525 1526 1525 1525 1524 1524 1524 1524 1524 1524 1524 1523 1523 1522 1521 1520 1519 1517
1463 1465 1467 1469 1472 1475 1479 1483 1485 1487 1489 1492 1495 1501 1504 1508 1510 1512 1514 1517 1519 1521 1521 1522 1523 1523 1523 1524 1524 1522 1522 1523 1522 1521 1521 1521 1520 1520 1519 1517 1516 1514 1512
1456 1459 1461 1463 1464 1467 1470 1474 1480 1483 1485 1487 1489 1494 1497 1502 1505 1507 1510 1513 1515 1517 1518 1520 1521 1521 1520 1521 1521 1521 1519 1518 1519 1518 1518 1518 1518 1517 1516 1515 1513 1511 1507
1450 1453 1455 1458 1458 1460 1463 1465 1468 1470 1474 1478 1483 1486 1490 1496 1500 1503 1506 1508 1510 1513 1514 1517 1518 1519 1518 1518 1518 1518 1517 1517 1516 1516 1516 1515 1514 1514 1513 1511 1509 1506 1503
1444 1446 1447 1450 1451 1452 1454 1456 1460 1462 1466 1472 1476 1480 1483 1487 1492 1496 1500 1502 1505 1507 1511 1512 1514 1515 1515 1516 1515 1515 1515 1514 1513 1513 1511 1512 1511 1510 1509 1507 1504 1500 1498
1438 1440 1441 1442 1444 1446 1446 1449 1452 1455 1459 1463 1468 1472 1476 1481 1485 1489 1493 1496 1499 1502 1505 1508 1509 1511 1512 1512 1512 1511 1511 1511 1509 1508 1507 1505 1504 1503 1503 1502 1499 1496 1493